Regional Weather Roundup
Issued by NWS

Home | Current Version | Previous Version | Text Only | Print | Product List | Glossary Off
Versions: 1 2 3 4 5 6 7 8 9 10 11 12 13 14 15 16 17 18 19 20 21 22 23 24 25 26 27 28 29 30 31 32 33 34 35 36 37 38 39 40 41 42 43 44 45 46 47 48 49 50

000
ASUS43 KLSX 241407
RWRMO

WEATHER SUMMARY FOR MISSOURI
NATIONAL WEATHER SERVICE SPRINGFIELD MO
900 AM CDT TUE APR 24 2018

NOTE: "FAIR" INDICATES FEW OR NO CLOUDS BELOW 12,000 FEET WITH NO
       SIGNIFICANT WEATHER AND/OR OBSTRUCTIONS TO VISIBILITY.
       CURRENT SKY AND/OR WEATHER CONDITIONS ARE NOT AVAILABLE FOR
       CHILLICOTHE AND FARMINGTON.

MOZ001>031-035>038-043-044-053-054-241500-
...NORTHERN AND WESTERN MISSOURI...

CITY           SKY/WX    TMP DP  RH WIND       PRES   REMARKS
KANSAS CTY INT MOSUNNY   58  34  40 N5        30.13R
KANSAS C DTWN  SUNNY     56  35  45 CALM      30.12R
LEE`S SUMMIT   SUNNY     58  34  40 N3        30.12R
ST JOSEPH      SUNNY     53  37  54 CALM      30.14R
CHILLICOTHE      N/A     57  36  45 NE5       30.12R
KIRKSVILLE     MOSUNNY   59  51  75 N7        30.09F

$$
MOZ066>068-077>081-088>096-101>105-241500-
...SOUTHWEST MISSOURI...

CITY           SKY/WX    TMP DP  RH WIND       PRES   REMARKS
SPRINGFIELD    SUNNY     57  44  62 N6        30.08R
JOPLIN         SUNNY     58  45  62 N3        30.12R
BRANSON        SUNNY     57  45  62 CALM      30.08R

$$
MOZ032>034-039>042-045>050-055>058-069>072-241500-
...CENTRAL MISSOURI...

CITY           SKY/WX    TMP DP  RH WIND       PRES   REMARKS
COLUMBIA       SUNNY     60  51  72 N10       30.07F
JEFFERSON CITY SUNNY     60  51  72 N12       30.07F
ROLLA          PTSUNNY   57  51  80 N9        30.06S
SEDALIA        SUNNY     58  43  57 NE6       30.10R
WHITEMAN AFB   MOSUNNY   55  37  50 N6        30.06R
WARRENSBURG    SUNNY     54  36  50 NW3       30.10S
OSAGE BEACH    CLOUDY    56  52  86 NE6       30.09S

$$
MOZ051-052-059>065-241500-
...EAST CENTRAL MISSOURI...

CITY           SKY/WX    TMP DP  RH WIND       PRES   REMARKS
ST LOUIS INTL  CLOUDY    57  54  89 N13       30.03S
SPIRIT OF STL  CLOUDY    58  55  90 N10       30.03R
ST CHARLES     CLOUDY    57  53  86 N13       30.03R

$$
MOZ072>076-082>087-097>100-106>115-241500-
...SOUTH CENTRAL AND SOUTHEAST MISSOURI...

CITY           SKY/WX    TMP DP  RH WIND       PRES   REMARKS
CAPE GIRARDEAU CLOUDY    57  55  93 NW9       29.98R
FARMINGTON     CLOUDY    55  52  89 NW8       30.02S
POPLAR BLUFF   CLOUDY    59  56  89 N8        29.99R
WEST PLAINS    CLOUDY    57  52  83 N9G18     30.05R

$$



USA.gov is the U.S. government's official web portal to all federal, state and local government web resources and services.